,,PA_Meas_PMT16A,,PR_Meas_QMR101_102,,RH_Meas_QMH101,,SR_Meas_QMS101,,TA_Meas_QMH101,,GenWind,,GenWind,
time,status,PA,status,PR,status,RH,status,SR,status,TA,status,DirAvg,status,SpdAvg,
2011-04-25, 00:00:05,VALID,917.209,VALID,0,VALID,97.5035,VALID,0,VALID,20.0733,VALID,135,VALID,0.484766,
2011-04-25, 00:01:05,VALID,917.233,VALID,0,VALID,97.4959,VALID,0,VALID,20.0733,VALID,135,VALID,0.482031,
2011-04-25, 00:02:05,VALID,917.217,VALID,0,VALID,97.5035,VALID,0,VALID,20.0928,VALID,135,VALID,0.649219,
2011-04-25, 00:03:05,VALID,917.16,VALID,0,VALID,97.4882,VALID,0,VALID,20.0928,VALID,135,VALID,0.676562,
2011-04-25, 00:04:05,VALID,917.157,VALID,0,VALID,97.5035,VALID,0,VALID,20.1123,VALID,135,VALID,0.691797,
2011-04-25, 00:05:05,VALID,917.157,VALID,0,VALID,97.5111,VALID,0,VALID,20.1123,VALID,135,VALID,0.639844,
2011-04-25, 00:06:05,VALID,917.16,VALID,0,VALID,97.5035,VALID,0,VALID,20.1123,VALID,135,VALID,0.44375,
2011-04-25, 00:07:05,VALID,917.13,VALID,0,VALID,97.4959,VALID,0,VALID,20.1123,VALID,135,VALID,0.564453,
2011-04-25, 00:08:05,VALID,917.118,VALID,0,VALID,97.4959,VALID,0,VALID,20.1139,VALID,135,VALID,0.708594,
2011-04-25, 00:09:05,VALID,917.1,VALID,0,VALID,97.5035,VALID,0,VALID,20.0733,VALID,135,VALID,0.639844,
2011-04-25, 00:10:05,VALID,917.089,VALID,0,VALID,97.5035,VALID,0,VALID,20.0343,VALID,135,VALID,0.792188,
2011-04-25, 00:11:05,VALID,917.086,VALID,0,VALID,97.5187,VALID,0,VALID,20.0148,VALID,135,VALID,0.78125,
2011-04-25, 00:12:05,VALID,917.087,VALID,0,VALID,97.5111,VALID,0,VALID,19.9953,VALID,135,VALID,0.883203,
2011-04-25, 00:13:05,VALID,917.071,VALID,0,VALID,97.5035,VALID,0,VALID,19.9758,VALID,135,VALID,0.791016,
2011-04-25, 00:14:05,VALID,917.056,VALID,0,VALID,97.5187,VALID,0,VALID,19.9368,VALID,135,VALID,1.00039,
2011-04-25, 00:15:04,VALID,917.037,VALID,0,VALID,97.5264,VALID,0,VALID,19.8978,VALID,135,VALID,0.880078,
2011-04-25, 00:16:04,VALID,917.008,VALID,0,VALID,97.534,VALID,0,VALID,19.8783,VALID,135,VALID,1.03203,
2011-04-25, 00:17:04,VALID,917.018,VALID,0,VALID,97.5264,VALID,0,VALID,19.8393,VALID,135,VALID,0.947656,
2011-04-25, 00:18:04,VALID,916.977,VALID,0,VALID,97.5187,VALID,0,VALID,19.8198,VALID,135,VALID,0.93125,
2011-04-25, 00:19:04,VALID,916.959,VALID,0,VALID,97.534,VALID,0,VALID,19.8003,VALID,135,VALID,0.715625,
2011-04-25, 00:20:04,VALID,916.949,VALID,0,VALID,97.5416,VALID,0,VALID,19.8198,VALID,135,VALID,0.683203,
2011-04-25, 00:21:04,VALID,916.949,VALID,0,VALID,97.534,VALID,0,VALID,19.8393,VALID,135,VALID,0.526563,
2011-04-25, 00:22:04,VALID,916.899,VALID,0,VALID,97.5416,VALID,0,VALID,19.8783,VALID,161,VALID,0.581641,
2011-04-25, 00:23:04,VALID,916.899,VALID,0,VALID,97.5264,VALID,0,VALID,19.9173,VALID,161,VALID,0.56875,
2011-04-25, 00:24:04,VALID,916.895,VALID,0,VALID,97.5264,VALID,0,VALID,19.9563,VALID,168,VALID,0.477344,
2011-04-25, 00:25:04,VALID,916.91,VALID,0,VALID,97.534,VALID,0,VALID,19.9758,VALID,163,VALID,0.734375,
2011-04-25, 00:26:04,VALID,916.884,VALID,0,VALID,97.5416,VALID,0,VALID,19.9953,VALID,180,VALID,1.05195,
2011-04-25, 00:27:04,VALID,916.896,VALID,0,VALID,97.5187,VALID,0,VALID,20.0148,VALID,174,VALID,0.541797,
2011-04-25, 00:28:04,VALID,916.888,VALID,0,VALID,97.5416,VALID,0,VALID,20.0343,VALID,174,VALID,0.5125,
2011-04-25, 00:29:04,VALID,916.882,VALID,0,VALID,97.5187,VALID,0,VALID,20.0538,VALID,174,VALID,0.583203,
2011-04-25, 00:30:04,VALID,916.909,VALID,0,VALID,97.5416,VALID,0,VALID,20.0538,VALID,139,VALID,0.8125,
2011-04-25, 00:31:04,VALID,916.885,VALID,0,VALID,97.5111,VALID,0,VALID,20.0538,VALID,139,VALID,0.591797,
2011-04-25, 00:32:04,VALID,916.899,VALID,0,VALID,97.5111,VALID,0,VALID,20.0944,VALID,139,VALID,0.425781,
2011-04-25, 00:33:04,VALID,916.856,VALID,0,VALID,97.5187,VALID,0,VALID,20.0733,VALID,139,VALID,0.604297,
2011-04-25, 00:34:04,VALID,916.853,VALID,0,VALID,97.534,VALID,0,VALID,20.0928,VALID,139,VALID,0.671094,
2011-04-25, 00:35:04,VALID,916.854,VALID,0,VALID,97.5264,VALID,0,VALID,20.1123,VALID,139,VALID,0.760156,
2011-04-25, 00:36:04,VALID,916.838,VALID,0,VALID,97.5264,VALID,0,VALID,20.1318,VALID,139,VALID,0.491016,
2011-04-25, 00:37:04,VALID,916.841,VALID,0,VALID,97.534,VALID,0,VALID,20.1513,VALID,139,VALID,0.564453,
2011-04-25, 00:38:04,VALID,916.829,VALID,0,VALID,97.5111,VALID,0,VALID,20.1513,VALID,158,VALID,0.523438,
2011-04-25, 00:39:04,VALID,916.784,VALID,0,VALID,97.5187,VALID,0,VALID,20.1513,VALID,158,VALID,0.508203,
2011-04-25, 00:40:04,VALID,916.803,VALID,0,VALID,97.5264,VALID,0,VALID,20.1919,VALID,158,VALID,0.620703,
2011-04-25, 00:41:04,VALID,916.794,VALID,0,VALID,97.5111,VALID,0,VALID,20.1708,VALID,163,VALID,0.987891,
2011-04-25, 00:42:04,VALID,916.81,VALID,0,VALID,97.5187,VALID,0,VALID,20.1708,VALID,163,VALID,1.22891,
2011-04-25, 00:43:04,VALID,916.777,VALID,0,VALID,97.5111,VALID,0,VALID,20.2098,VALID,163,VALID,0.808594,
2011-04-25, 00:44:04,VALID,916.765,VALID,0,VALID,97.5187,VALID,0,VALID,20.1903,VALID,157,VALID,1.23203,
2011-04-25, 00:45:04,VALID,916.748,VALID,0,VALID,97.5187,VALID,0,VALID,20.1708,VALID,153,VALID,1.21328,
2011-04-25, 00:46:04,VALID,916.693,VALID,0,VALID,97.5111,VALID,0,VALID,20.1708,VALID,151,VALID,1.11172,
2011-04-25, 00:47:04,VALID,916.674,VALID,0,VALID,97.5035,VALID,0,VALID,20.1708,VALID,159,VALID,0.709375,
2011-04-25, 00:48:04,VALID,916.682,VALID,0,VALID,97.5187,VALID,0,VALID,20.1513,VALID,129,VALID,1.17617,
2011-04-25, 00:49:04,VALID,916.625,VALID,0,VALID,97.5111,VALID,0,VALID,20.1708,VALID,163,VALID,1.24141,
2011-04-25, 00:50:04,VALID,916.623,VALID,0,VALID,97.5111,VALID,0,VALID,20.1708,VALID,149,VALID,1.00586,
2011-04-25, 00:51:04,VALID,916.615,VALID,0,VALID,97.5111,VALID,0,VALID,20.1724,VALID,178,VALID,0.864062,
2011-04-25, 00:52:04,VALID,916.59,VALID,0,VALID,97.5264,VALID,0,VALID,20.1513,VALID,175,VALID,0.902344,
2011-04-25, 00:53:04,VALID,916.557,VALID,0,VALID,97.5035,VALID,0,VALID,20.1513,VALID,175,VALID,1.12656,
2011-04-25, 00:54:04,VALID,916.551,VALID,0,VALID,97.5187,VALID,0,VALID,20.1708,VALID,140,VALID,1.28672,
2011-04-25, 00:55:04,VALID,916.518,VALID,0,VALID,97.5187,VALID,0,VALID,20.1708,VALID,143,VALID,0.585938,
2011-04-25, 00:56:04,VALID,916.489,VALID,0,VALID,97.5187,VALID,0,VALID,20.1513,VALID,143,VALID,0.774219,
2011-04-25, 00:57:04,VALID,916.464,VALID,0,VALID,97.5264,VALID,0,VALID,20.1513,VALID,121,VALID,1.40586,
2011-04-25, 00:58:04,VALID,916.441,VALID,0,VALID,97.5187,VALID,0,VALID,20.1123,VALID,139,VALID,1.24336,
2011-04-25, 00:59:04,VALID,916.442,VALID,0,VALID,97.5264,VALID,0,VALID,20.1529,VALID,110,VALID,0.968359,
2011-04-25, 01:00:04,VALID,916.412,VALID,0,VALID,97.5264,VALID,0,VALID,20.1123,VALID,132,VALID,1.1957,
2011-04-25, 01:01:04,VALID,916.381,VALID,0,VALID,97.5187,VALID,0,VALID,20.1123,VALID,134,VALID,1.52383,
2011-04-25, 01:02:04,VALID,916.358,VALID,0,VALID,97.5264,VALID,0,VALID,20.0733,VALID,124,VALID,1.14492,
2011-04-25, 01:03:04,VALID,916.338,VALID,0,VALID,97.5035,VALID,0,VALID,20.0733,VALID,130,VALID,1.07383,
2011-04-25, 01:04:04,VALID,916.31,VALID,0,VALID,97.534,VALID,0,VALID,20.0733,VALID,142,VALID,1.17344,
2011-04-25, 01:05:04,VALID,916.297,VALID,0,VALID,97.5264,VALID,0,VALID,20.0733,VALID,145,VALID,0.675391,
2011-04-25, 01:06:04,VALID,916.292,VALID,0,VALID,97.5416,VALID,0,VALID,20.0733,VALID,140,VALID,0.896484,
2011-04-25, 01:07:04,VALID,916.284,VALID,0,VALID,97.5187,VALID,0,VALID,20.0928,VALID,138,VALID,0.625,
2011-04-25, 01:08:04,VALID,916.241,VALID,0,VALID,97.5111,VALID,0,VALID,20.0928,VALID,138,VALID,0.572266,
2011-04-25, 01:09:04,VALID,916.223,VALID,0,VALID,97.5416,VALID,0,VALID,20.0928,VALID,138,VALID,0.726172,
2011-04-25, 01:10:04,VALID,916.224,VALID,0,VALID,97.5264,VALID,0,VALID,20.0928,VALID,138,VALID,0.571484,
2011-04-25, 01:11:04,VALID,916.208,VALID,0,VALID,97.5416,VALID,0,VALID,20.1123,VALID,151,VALID,1.13437,
2011-04-25, 01:12:04,VALID,916.191,VALID,0,VALID,97.5492,VALID,0,VALID,20.1123,VALID,138,VALID,1.15742,
2011-04-25, 01:13:04,VALID,916.169,VALID,0,VALID,97.5492,VALID,0,VALID,20.0913,VALID,131,VALID,0.907031,
2011-04-25, 01:14:04,VALID,916.164,VALID,0,VALID,97.5416,VALID,0,VALID,20.0928,VALID,137,VALID,1.35547,
2011-04-25, 01:15:04,VALID,916.178,VALID,0,VALID,97.5416,VALID,0,VALID,20.1123,VALID,139,VALID,0.648438,
2011-04-25, 01:16:04,VALID,916.146,VALID,0,VALID,97.5187,VALID,0,VALID,20.1123,VALID,143,VALID,0.983203,
2011-04-25, 01:17:04,VALID,916.138,VALID,0,VALID,97.534,VALID,0,VALID,20.1334,VALID,168,VALID,1.92266,
2011-04-25, 01:18:04,VALID,916.138,VALID,0,VALID,97.5492,VALID,0,VALID,20.1123,VALID,165,VALID,1.19062,
2011-04-25, 01:19:04,VALID,916.133,VALID,0,VALID,97.534,VALID,0,VALID,20.1123,VALID,141,VALID,1.15977,
2011-04-25, 01:20:04,VALID,916.138,VALID,0,VALID,97.5264,VALID,0,VALID,20.1123,VALID,135,VALID,1.33711,
2011-04-25, 01:21:04,VALID,916.124,VALID,0,VALID,97.534,VALID,0,VALID,20.1123,VALID,179,VALID,1.31406,
2011-04-25, 01:22:04,VALID,916.108,VALID,0,VALID,97.5187,VALID,0,VALID,20.1318,VALID,136,VALID,1.12891,
2011-04-25, 01:23:04,VALID,916.104,VALID,0,VALID,97.5264,VALID,0,VALID,20.1318,VALID,136,VALID,0.431641,
2011-04-25, 01:24:04,VALID,916.122,VALID,0,VALID,97.5416,VALID,0,VALID,20.1123,VALID,152,VALID,0.883984,
2011-04-25, 01:25:04,VALID,916.093,VALID,0,VALID,97.5492,VALID,0,VALID,20.1123,VALID,164,VALID,1.53594,
2011-04-25, 01:26:04,VALID,916.07,VALID,0,VALID,97.5264,VALID,0,VALID,20.1123,VALID,157,VALID,1.34805,
2011-04-25, 01:27:04,VALID,916.058,VALID,0,VALID,97.5492,VALID,0.107441,VALID,20.1123,VALID,154,VALID,1.22891,
2011-04-25, 01:28:04,VALID,916.045,VALID,0,VALID,97.5416,VALID,0,VALID,20.0928,VALID,154,VALID,0.891797,
2011-04-25, 01:29:04,VALID,916.031,VALID,0,VALID,97.5416,VALID,0,VALID,20.0928,VALID,167,VALID,1.50273,
2011-04-25, 01:30:04,VALID,915.995,VALID,0,VALID,97.5492,VALID,0,VALID,20.0733,VALID,166,VALID,0.844531,
2011-04-25, 01:31:04,VALID,915.983,VALID,0,VALID,97.5416,VALID,0,VALID,20.0928,VALID,163,VALID,1.27656,
2011-04-25, 01:32:04,VALID,915.958,VALID,0,VALID,97.5416,VALID,0,VALID,20.0733,VALID,100,VALID,0.951563,
2011-04-25, 01:33:04,VALID,915.94,VALID,0,VALID,97.534,VALID,0,VALID,20.0733,VALID,155,VALID,1.1707,
2011-04-25, 01:34:04,VALID,915.967,VALID,0,VALID,97.5645,VALID,0,VALID,20.0343,VALID,164,VALID,1.1,
2011-04-25, 01:35:04,VALID,915.9,VALID,0,VALID,97.5492,VALID,0,VALID,20.0148,VALID,165,VALID,1.62812,
2011-04-25, 01:36:04,VALID,915.871,VALID,0,VALID,97.5645,VALID,0,VALID,20.0148,VALID,175,VALID,1.50391,
2011-04-25, 01:37:04,VALID,915.843,VALID,0,VALID,97.5492,VALID,0,VALID,20.0148,VALID,183,VALID,1.56406,
2011-04-25, 01:38:04,VALID,915.855,VALID,0,VALID,97.5569,VALID,0,VALID,20.0148,VALID,164,VALID,1.72266,
2011-04-25, 01:39:04,VALID,915.815,VALID,0,VALID,97.5492,VALID,0,VALID,20.0148,VALID,161,VALID,1.7957,
2011-04-25, 01:40:04,VALID,915.794,VALID,0,VALID,97.534,VALID,0,VALID,19.9953,VALID,165,VALID,1.30508,
2011-04-25, 01:41:04,VALID,915.785,VALID,0,VALID,97.5569,VALID,0.107441,VALID,19.9743,VALID,156,VALID,1.00469,
2011-04-25, 01:42:04,VALID,915.767,VALID,0,VALID,97.5873,VALID,0,VALID,19.9758,VALID,177,VALID,0.877734,
2011-04-25, 01:43:04,VALID,915.807,VALID,0,VALID,97.5873,VALID,0,VALID,19.9368,VALID,170,VALID,1.27578,
2011-04-25, 01:44:04,VALID,915.782,VALID,0,VALID,97.5721,VALID,0,VALID,19.8978,VALID,151,VALID,0.803125,
2011-04-25, 01:45:04,VALID,915.739,VALID,0,VALID,97.5721,VALID,0,VALID,19.8783,VALID,145,VALID,1.45703,
2011-04-25, 01:46:04,VALID,915.777,VALID,0,VALID,97.5645,VALID,0,VALID,19.8393,VALID,137,VALID,1.275,
2011-04-25, 01:47:04,VALID,915.728,VALID,0,VALID,97.5645,VALID,0,VALID,19.8003,VALID,138,VALID,0.854297,
2011-04-25, 01:48:04,VALID,915.745,VALID,0,VALID,97.5797,VALID,0,VALID,19.7793,VALID,120,VALID,0.855078,
2011-04-25, 01:49:04,VALID,915.721,VALID,0,VALID,97.5416,VALID,0,VALID,19.7598,VALID,146,VALID,0.901172,
2011-04-25, 01:50:04,VALID,915.689,VALID,0,VALID,97.5797,VALID,0,VALID,19.7808,VALID,142,VALID,0.699609,
2011-04-25, 01:51:04,VALID,915.651,VALID,0,VALID,97.5797,VALID,0,VALID,19.7808,VALID,135,VALID,0.429297,
2011-04-25, 01:52:04,VALID,915.664,VALID,0,VALID,97.6178,VALID,0,VALID,19.7598,VALID,135,VALID,0.386328,
2011-04-25, 01:53:04,VALID,915.66,VALID,0,VALID,97.5645,VALID,0.107441,VALID,19.7403,VALID,135,VALID,0.914453,
2011-04-25, 01:54:04,VALID,915.667,VALID,0,VALID,97.595,VALID,0.107441,VALID,19.7598,VALID,135,VALID,0.752734,
2011-04-25, 01:55:04,VALID,915.661,VALID,0,VALID,97.595,VALID,0.107441,VALID,19.7403,VALID,135,VALID,0.325,
2011-04-25, 01:56:04,VALID,915.658,VALID,0,VALID,97.5721,VALID,0.107441,VALID,19.7208,VALID,135,VALID,0.676562,
2011-04-25, 01:57:04,VALID,915.676,VALID,0,VALID,97.6026,VALID,0.107441,VALID,19.7208,VALID,135,VALID,0.667188,
2011-04-25, 01:58:04,VALID,915.653,VALID,0,VALID,97.595,VALID,0,VALID,19.7208,VALID,135,VALID,0.741797,
2011-04-25, 01:59:04,VALID,915.649,VALID,0,VALID,97.595,VALID,0.107441,VALID,19.7013,VALID,135,VALID,0.642578,
2011-04-25, 02:00:04,VALID,915.652,VALID,0,VALID,97.5873,VALID,0.107441,VALID,19.6818,VALID,135,VALID,0.595312,
2011-04-25, 02:01:04,VALID,915.686,VALID,0,VALID,97.5873,VALID,0.107441,VALID,19.6428,VALID,135,VALID,0.614453,
2011-04-25, 02:02:04,VALID,915.657,VALID,0,VALID,97.5873,VALID,0.107441,VALID,19.6233,VALID,135,VALID,0.342187,
2011-04-25, 02:03:04,VALID,915.609,VALID,0,VALID,97.595,VALID,0.107441,VALID,19.6443,VALID,135,VALID,0.558984,
2011-04-25, 02:04:04,VALID,915.649,VALID,0,VALID,97.5721,VALID,0.107441,VALID,19.6233,VALID,135,VALID,0.412109,
2011-04-25, 02:05:04,VALID,915.623,VALID,0,VALID,97.6026,VALID,0,VALID,19.6443,VALID,135,VALID,0.455078,
2011-04-25, 02:06:04,VALID,915.628,VALID,0,VALID,97.5797,VALID,0.107441,VALID,19.6428,VALID,135,VALID,0.653906,
2011-04-25, 02:07:04,VALID,915.651,VALID,0,VALID,97.595,VALID,0,VALID,19.6638,VALID,135,VALID,0.569922,
2011-04-25, 02:08:04,VALID,915.665,VALID,0,VALID,97.5873,VALID,0,VALID,19.6638,VALID,135,VALID,0.545703,
2011-04-25, 02:09:04,VALID,915.619,VALID,0,VALID,97.6026,VALID,0,VALID,19.6638,VALID,135,VALID,0.788281,
2011-04-25, 02:10:04,VALID,915.639,VALID,0,VALID,97.6178,VALID,0,VALID,19.6848,VALID,135,VALID,0.492188,
2011-04-25, 02:11:04,VALID,915.633,VALID,0,VALID,97.6026,VALID,0,VALID,19.6638,VALID,135,VALID,0.430859,
2011-04-25, 02:12:04,VALID,915.649,VALID,0,VALID,97.6026,VALID,0,VALID,19.6653,VALID,135,VALID,0.600391,
2011-04-25, 02:13:04,VALID,915.641,VALID,0,VALID,97.6026,VALID,0,VALID,19.6248,VALID,135,VALID,0.318359,
2011-04-25, 02:14:04,VALID,915.616,VALID,0,VALID,97.6255,VALID,0,VALID,19.6458,VALID,135,VALID,0.780078,
2011-04-25, 02:15:04,VALID,915.6,VALID,0,VALID,97.6102,VALID,0,VALID,19.6638,VALID,135,VALID,0.516016,
2011-04-25, 02:16:04,VALID,915.595,VALID,0,VALID,97.5721,VALID,0,VALID,19.6638,VALID,135,VALID,0.366016,
2011-04-25, 02:17:04,VALID,915.579,VALID,0,VALID,97.6026,VALID,0,VALID,19.6653,VALID,135,VALID,0.733594,
2011-04-25, 02:18:04,VALID,915.569,VALID,0,VALID,97.595,VALID,0,VALID,19.6638,VALID,135,VALID,0.394141,
2011-04-25, 02:19:04,VALID,915.54,VALID,0,VALID,97.6178,VALID,0,VALID,19.6848,VALID,135,VALID,0.510156,
2011-04-25, 02:20:04,VALID,915.568,VALID,0,VALID,97.6178,VALID,0,VALID,19.6653,VALID,135,VALID,0.516406,
2011-04-25, 02:21:04,VALID,915.567,VALID,0,VALID,97.6255,VALID,0,VALID,19.6443,VALID,135,VALID,0.715625,
2011-04-25, 02:22:04,VALID,915.572,VALID,0,VALID,97.6178,VALID,0.107441,VALID,19.6623,VALID,141,VALID,0.411328,
2011-04-25, 02:23:04,VALID,915.573,VALID,0,VALID,97.6102,VALID,0,VALID,19.6638,VALID,141,VALID,0.227344,
2011-04-25, 02:24:04,VALID,915.593,VALID,0,VALID,97.6102,VALID,0.107441,VALID,19.6428,VALID,141,VALID,0.530859,
2011-04-25, 02:25:04,VALID,915.556,VALID,0,VALID,97.6331,VALID,0,VALID,19.6233,VALID,141,VALID,0.219531,
2011-04-25, 02:26:04,VALID,915.566,VALID,0,VALID,97.6102,VALID,0.107441,VALID,19.6038,VALID,141,VALID,0.602734,
2011-04-25, 02:27:04,VALID,915.575,VALID,0,VALID,97.6102,VALID,0,VALID,19.6248,VALID,141,VALID,0.503125,
2011-04-25, 02:28:04,VALID,915.541,VALID,0,VALID,97.6178,VALID,0,VALID,19.6248,VALID,141,VALID,0.73125,
2011-04-25, 02:29:04,VALID,915.536,VALID,0,VALID,97.6255,VALID,0,VALID,19.6038,VALID,141,VALID,0.589844,
2011-04-25, 02:30:04,VALID,915.526,VALID,0,VALID,97.595,VALID,0,VALID,19.6428,VALID,141,VALID,0.583984,
2011-04-25, 02:31:04,VALID,915.505,VALID,0,VALID,97.6102,VALID,0.107441,VALID,19.6638,VALID,141,VALID,0.29375,
2011-04-25, 02:32:04,VALID,915.532,VALID,0,VALID,97.6178,VALID,0.107441,VALID,19.6233,VALID,155,VALID,1.06445,
2011-04-25, 02:33:04,VALID,915.533,VALID,0,VALID,97.6102,VALID,0.107441,VALID,19.6218,VALID,121,VALID,0.843359,
2011-04-25, 02:34:04,VALID,915.526,VALID,0,VALID,97.6407,VALID,0.107441,VALID,19.6233,VALID,121,VALID,1.00039,
2011-04-25, 02:35:04,VALID,915.549,VALID,0,VALID,97.6255,VALID,0.107441,VALID,19.6233,VALID,121,VALID,0.741016,
2011-04-25, 02:36:04,VALID,915.558,VALID,0,VALID,97.6255,VALID,0,VALID,19.6038,VALID,121,VALID,0.606641,
2011-04-25, 02:37:04,VALID,915.587,VALID,0,VALID,97.6102,VALID,0,VALID,19.6038,VALID,121,VALID,0.707031,
2011-04-25, 02:38:04,VALID,915.614,VALID,0,VALID,97.6331,VALID,0.107441,VALID,19.6038,VALID,121,VALID,0.420312,
2011-04-25, 02:39:04,VALID,915.594,VALID,0,VALID,97.6255,VALID,0,VALID,19.5648,VALID,121,VALID,0.417188,
2011-04-25, 02:40:04,VALID,915.63,VALID,0,VALID,97.6178,VALID,0,VALID,19.5843,VALID,121,VALID,0.923828,
2011-04-25, 02:41:04,VALID,915.641,VALID,0,VALID,97.6255,VALID,0,VALID,19.5843,VALID,121,VALID,0.629297,
2011-04-25, 02:42:04,VALID,915.663,VALID,0,VALID,97.6178,VALID,0.107441,VALID,19.6053,VALID,121,VALID,0.6125,
2011-04-25, 02:43:04,VALID,915.646,VALID,0,VALID,97.6102,VALID,0.107441,VALID,19.6038,VALID,122,VALID,1.05039,
2011-04-25, 02:44:04,VALID,915.67,VALID,0,VALID,97.6255,VALID,0,VALID,19.6638,VALID,124,VALID,1.03477,
2011-04-25, 02:45:04,VALID,915.669,VALID,0,VALID,97.6331,VALID,0.107441,VALID,19.6638,VALID,129,VALID,0.919922,
2011-04-25, 02:46:04,VALID,915.649,VALID,0,VALID,97.6102,VALID,0,VALID,19.6428,VALID,149,VALID,1.02305,
2011-04-25, 02:47:04,VALID,915.675,VALID,0,VALID,97.6255,VALID,0,VALID,19.6428,VALID,156,VALID,0.930859,
2011-04-25, 02:48:04,VALID,915.672,VALID,0,VALID,97.6102,VALID,0.107441,VALID,19.6428,VALID,158,VALID,0.693359,
2011-04-25, 02:49:04,VALID,915.654,VALID,0,VALID,97.6331,VALID,0.107441,VALID,19.6623,VALID,158,VALID,0.919141,
2011-04-25, 02:50:04,VALID,915.653,VALID,0,VALID,97.6178,VALID,0.107441,VALID,19.6818,VALID,174,VALID,0.976563,
2011-04-25, 02:51:04,VALID,915.661,VALID,0,VALID,97.5873,VALID,0,VALID,19.7028,VALID,139,VALID,0.933984,
2011-04-25, 02:52:04,VALID,915.644,VALID,0,VALID,97.6102,VALID,0,VALID,19.7238,VALID,133,VALID,0.889453,
2011-04-25, 02:53:04,VALID,915.63,VALID,0,VALID,97.6026,VALID,0,VALID,19.7223,VALID,160,VALID,0.987109,
2011-04-25, 02:54:04,VALID,915.641,VALID,0,VALID,97.6255,VALID,0,VALID,19.7223,VALID,139,VALID,0.977344,
2011-04-25, 02:55:04,VALID,915.629,VALID,0,VALID,97.595,VALID,0,VALID,19.7223,VALID,139,VALID,0.935156,
2011-04-25, 02:56:04,VALID,915.653,VALID,0,VALID,97.595,VALID,0,VALID,19.7028,VALID,138,VALID,1.07852,
2011-04-25, 02:57:04,VALID,915.618,VALID,0,VALID,97.6178,VALID,0,VALID,19.7028,VALID,130,VALID,1.12539,
2011-04-25, 02:58:04,VALID,915.631,VALID,0,VALID,97.6102,VALID,0,VALID,19.7028,VALID,131,VALID,0.736719,
2011-04-25, 02:59:04,VALID,915.653,VALID,0,VALID,97.595,VALID,0,VALID,19.6833,VALID,130,VALID,1.02188,
2011-04-25, 03:00:04,VALID,915.673,VALID,0,VALID,97.5873,VALID,0,VALID,19.7043,VALID,80,VALID,0.908984,
2011-04-25, 03:01:04,VALID,915.663,VALID,0,VALID,97.6026,VALID,0,VALID,19.6638,VALID,71,VALID,1.63437,
2011-04-25, 03:02:04,VALID,915.689,VALID,0,VALID,97.6102,VALID,0,VALID,19.6443,VALID,74,VALID,1.2793,
2011-04-25, 03:03:04,VALID,915.653,VALID,0,VALID,97.595,VALID,0,VALID,19.6248,VALID,74,VALID,1.35508,
2011-04-25, 03:04:04,VALID,915.66,VALID,0,VALID,97.6102,VALID,0,VALID,19.6053,VALID,56,VALID,1.58164,
2011-04-25, 03:05:04,VALID,915.678,VALID,0,VALID,97.6331,VALID,0,VALID,19.6053,VALID,45,VALID,1.29414,
2011-04-25, 03:06:04,VALID,915.712,VALID,0,VALID,97.6102,VALID,0,VALID,19.6053,VALID,45,VALID,1.34922,
2011-04-25, 03:07:04,VALID,915.721,VALID,0,VALID,97.6026,VALID,0,VALID,19.6248,VALID,45,VALID,1.00117,
2011-04-25, 03:08:04,VALID,915.734,VALID,0,VALID,97.6178,VALID,0,VALID,19.6458,VALID,45,VALID,0.973047,
2011-04-25, 03:09:04,VALID,915.738,VALID,0,VALID,97.6178,VALID,0,VALID,19.6248,VALID,45,VALID,0.837891,
2011-04-25, 03:10:04,VALID,915.739,VALID,0,VALID,97.6026,VALID,0,VALID,19.6248,VALID,45,VALID,1.07656,
2011-04-25, 03:11:04,VALID,915.733,VALID,0,VALID,97.6331,VALID,0,VALID,19.6263,VALID,45,VALID,0.898828,
2011-04-25, 03:12:04,VALID,915.756,VALID,0,VALID,97.6178,VALID,0,VALID,19.6263,VALID,45,VALID,0.342969,
2011-04-25, 03:13:04,VALID,915.742,VALID,0,VALID,97.6102,VALID,0,VALID,19.6458,VALID,45,VALID,0.198828,
2011-04-25, 03:14:04,VALID,915.728,VALID,0,VALID,97.6178,VALID,0,VALID,19.6248,VALID,45,VALID,0.513281,
2011-04-25, 03:15:04,VALID,915.711,VALID,0,VALID,97.6331,VALID,0,VALID,19.6248,VALID,45,VALID,0.551172,
2011-04-25, 03:16:04,VALID,915.707,VALID,0,VALID,97.6178,VALID,0,VALID,19.6653,VALID,45,VALID,0.937891,
2011-04-25, 03:17:04,VALID,915.716,VALID,0,VALID,97.6026,VALID,0,VALID,19.6653,VALID,45,VALID,0.712109,
2011-04-25, 03:18:04,VALID,915.739,VALID,0,VALID,97.6102,VALID,0,VALID,19.6458,VALID,45,VALID,0.628906,
2011-04-25, 03:19:04,VALID,915.749,VALID,0,VALID,97.6178,VALID,0,VALID,19.6443,VALID,45,VALID,0.951563,
2011-04-25, 03:20:04,VALID,915.729,VALID,0,VALID,97.6255,VALID,0,VALID,19.6638,VALID,52,VALID,1.23984,
2011-04-25, 03:21:04,VALID,915.718,VALID,0,VALID,97.6026,VALID,0,VALID,19.6638,VALID,69,VALID,1.37852,
2011-04-25, 03:22:04,VALID,915.726,VALID,0,VALID,97.6178,VALID,0,VALID,19.6833,VALID,69,VALID,0.809375,
2011-04-25, 03:23:04,VALID,915.742,VALID,0,VALID,97.6026,VALID,0,VALID,19.6638,VALID,69,VALID,0.506641,
2011-04-25, 03:24:04,VALID,915.733,VALID,0,VALID,97.6331,VALID,0,VALID,19.6638,VALID,69,VALID,0.703516,
2011-04-25, 03:25:04,VALID,915.719,VALID,0,VALID,97.6102,VALID,0,VALID,19.6833,VALID,69,VALID,0.757031,
2011-04-25, 03:26:04,VALID,915.711,VALID,0,VALID,97.6102,VALID,0,VALID,19.6623,VALID,69,VALID,0.829297,
2011-04-25, 03:27:04,VALID,915.732,VALID,0,VALID,97.6255,VALID,0,VALID,19.6638,VALID,69,VALID,0.608203,
2011-04-25, 03:28:04,VALID,915.703,VALID,0,VALID,97.6026,VALID,0,VALID,19.6833,VALID,69,VALID,0.697266,
2011-04-25, 03:29:04,VALID,915.712,VALID,0,VALID,97.6331,VALID,0,VALID,19.6443,VALID,69,VALID,0.828516,
2011-04-25, 03:30:04,VALID,915.748,VALID,0,VALID,97.6255,VALID,0,VALID,19.6233,VALID,69,VALID,0.823438,
2011-04-25, 03:31:04,VALID,915.714,VALID,0,VALID,97.6255,VALID,0,VALID,19.6638,VALID,69,VALID,0.978125,
2011-04-25, 03:32:04,VALID,915.735,VALID,0,VALID,97.6026,VALID,0,VALID,19.6833,VALID,69,VALID,0.839453,
2011-04-25, 03:33:04,VALID,915.728,VALID,0,VALID,97.595,VALID,0,VALID,19.6428,VALID,69,VALID,0.0539063,
2011-04-25, 03:34:04,VALID,915.72,VALID,0,VALID,97.6026,VALID,0,VALID,19.6233,VALID,69,VALID,0.613281,
2011-04-25, 03:35:04,VALID,915.748,VALID,0,VALID,97.6178,VALID,0,VALID,19.6623,VALID,69,VALID,0.305859,
2011-04-25, 03:36:04,VALID,915.79,VALID,0,VALID,97.6255,VALID,0,VALID,19.6833,VALID,69,VALID,0.873047,
2011-04-25, 03:37:04,VALID,915.792,VALID,0,VALID,97.6407,VALID,0,VALID,19.6818,VALID,69,VALID,0.303516,
2011-04-25, 03:38:04,VALID,915.794,VALID,0,VALID,97.6178,VALID,0.107441,VALID,19.6623,VALID,69,VALID,0.335547,
2011-04-25, 03:39:04,VALID,915.786,VALID,0,VALID,97.6178,VALID,0,VALID,19.6623,VALID,69,VALID,0.736719,
2011-04-25, 03:40:04,VALID,915.814,VALID,0,VALID,97.6255,VALID,0,VALID,19.6833,VALID,69,VALID,0.46875,
2011-04-25, 03:41:04,VALID,915.784,VALID,0,VALID,97.6102,VALID,0,VALID,19.6833,VALID,69,VALID,0.370703,
2011-04-25, 03:42:04,VALID,915.74,VALID,0,VALID,97.6255,VALID,0,VALID,19.6623,VALID,69,VALID,0.398828,
2011-04-25, 03:43:04,VALID,915.749,VALID,0,VALID,97.6331,VALID,0,VALID,19.6833,VALID,69,VALID,0.380078,